box saran
Judi Online Terpercaya

Jackpot

Texas Poker Multi Jackpot System

Kini Telah hadir Jackpot SUPER ROYAL FLUSH

Kini Telah hadir Jackpot 2000 (khusus table VIP keatas).

Ikutilah global jackpot yang tersedia di system kami, dengan system jackpot terbaru dan pertama di indonesia, anda dapat membeli jackpot dengan harga 100 rupiah saja dan menangkan hadiahnya hingga puluhan juta rupiah.

Jackpot bukanlah suatu keharusan untuk dibeli, namun kami memberikan suatu fitur tambahan untuk member tercinta dari www.pokerindo818.com.

Terdapat tiga pilihan harga jackpot yang bisa anda beli yaitu :100,500,1000 dan 2000(khusus table VIP Keatas) rupiah.

Hadiah dari Multi jackpot system www.pokerindo818.com

  1. full house x 10 harga jackpot yang anda beli.
      (contoh:anda membeli 1000 maka:1000 X10 = 10.000)
  2. four of kind x 250 harga jackpot yang anda beli
      (contoh:anda membeli 1000 maka:1000 X250 = 250.000)
  3. Straight flush x 1200
      (contoh:anda membeli 1000 maka:1000 X1200 = 1.200.000)
  4. Royal flush x 10000 harga jackpot yang anda beli
      (contoh:anda membeli 1000 maka:1000 X10000 = 10.000.000)
  5. SUPER ROYAL FLUSH x 30000 harga jackpot yang anda beli
      (contoh:anda membeli 1000 maka:1000 X30000 = 30.000.000)

Kondisi kartu

  1. full house adalah kondisi kartu dimana kartu anda dan kartu tengah dengan total 7 kartu bisa mendapatkan nilai 5 kartu dengan kombinasi 1 tris(three of kind) dan 1 pair, contoh 3 kartu 10 dan 2 kartu 5
  2. Four of kind adalah kondisi kartu dimana kartu anda dan kartu tengah dengan total 7 kartu bisa mendapatkan nilai 5 kartu dengan kombinasi 4 kartu yang sama jumlah dan 1 kartu apapun juga contoh anda mendapatkan 4 buah kartu angka 3 dan 1 kartu apapun.
  3. Staright flush adalah kondisi kartu dimana kartu anda dan kartu tengah dengan total 7 kartu bisa mendapatkan nilai 5 kartu dengan kombinasi seri / staright dengan kembang yang sama contoh : urutan kartu dari angka 5, 6, 7, 8 , 9 10 dengan kembang yg sama misalnya as hati
  4. Royal flush adalah kondisi kartu dimana kartu anda dan kartu tengah dengan total 7 kartu bisa mendapatkan nilai 5 kartu dengan kombinasi seri / staright dengan kembang yang sama tetapi kartu tersebut haruslah dimulai dari 10. contoh 10, Queen, Jack, King dan aces dengan kembang yang sama
  5. Super Royal flush adalah kondisi kartu dimana Kedua kartu anda digabung dengan 3 kartu pertama meja haruslah royal flush. contoh kartu anda 10,Queen kembang sama dan 3 kartu pertama meja adalah Jack, King dan aces dengan kembang yang sama

Demikian adalah penjelasan dari Multi Jackpot www.pokerindo818.com terima kasih dan selamat bermain salam hoki dari kami

Texas Poker Jackpot Winner

TOP SUPER ROYAL FLUSH
No.TanggalNamaPriceWin
121/09 14:11ROYALJOZZSuper Royal flush60,000,000
221/09 13:43BA_ATIYOSuper Royal flush6,000,000
321/09 12:23B8EKCBJIYMSuper Royal flush3,000,000
421/09 08:32TUPO25Super Royal flush3,000,000
521/09 07:21SLOME898Super Royal flush30,000,000
TOP ROYAL FLUSH
No.TanggalNamaPriceWin
122/09 02:12HPZB6QZ1ZNRoyal flush2,000,000
222/09 01:56KUPRAANTORoyal flush10,000,000
322/09 01:56B18BANG17460Royal flush10,000,000
422/09 01:51W1D2345Royal flush1,000,000
522/09 01:43ANTICEBONGRoyal flush10,000,000
TOP STRAIGHT FLUSH
No.TanggalNamaPriceWin
122/09 02:13AWEI286Straight Flush120,000
222/09 02:09JEPARA87Straight Flush2,400,000
322/09 02:07SAEASStraight Flush2,400,000
422/09 02:07LUCKY_E7EStraight Flush1,200,000
522/09 02:06ACENG24Straight Flush240,000
LATEST JACKPOT
No.TanggalNamaPriceWin
122/09 02:14DYRAN091Four Of A Kind50,000
222/09 02:14NAKMELDFull House10,000
322/09 02:14VAL3121EFull House10,000
422/09 02:14KICA00Full House2,000
522/09 02:14HAWONAGO13Full House2,000
622/09 02:14HENIKOFull House5,000
722/09 02:14KEMPROLLSFull House2,000
822/09 02:14MAHEBONGFull House1,000
922/09 02:14KENCIT19Full House2,000
1022/09 02:14MARBOR_01Full House2,000
1122/09 02:14SEMIO9Full House2,000
1222/09 02:14RAJADOET9Full House10,000
1322/09 02:14PAK_EKOOOFull House2,000
1422/09 02:14GOCEK90Full House1,000
1522/09 02:14F629CEDFFull House5,000
1622/09 02:14HAPE77Full House10,000
1722/09 02:14JELEBAWFull House10,000
1822/09 02:14DJIDJOFull House1,000
1922/09 02:14DOUBEL11Full House1,000
2022/09 02:14IJONK_C4Full House10,000
2122/09 02:14VANHELS01Full House1,000
2222/09 02:14PANLOK77Full House2,000
2322/09 02:14ED31D445Full House5,000
2422/09 02:14DOKTER1088Full House10,000
2522/09 02:14APRIANIQFull House2,000
2622/09 02:14BGANGG4Full House1,000
2722/09 02:14E5F8CE71Full House1,000
2822/09 02:13E38C6B19Full House2,000
2922/09 02:13ODLEFull House1,000
3022/09 02:13POTATO776Full House10,000
3122/09 02:13YUMNA225Full House2,000
3222/09 02:13AMPHETAMINFull House5,000
3322/09 02:13SAIFUL76Full House20,000
3422/09 02:13MFM_RYL7Full House2,000
3522/09 02:13DIAMOND885Full House1,000
3622/09 02:13BREW_AUFull House2,000
3722/09 02:13LEMPUANG77Full House20,000
3822/09 02:13MAFIA0704Full House1,000
3922/09 02:13T4DKENZO45Four Of A Kind25,000
4022/09 02:13TAPAY77Full House1,000
4122/09 02:13VMUPN0AZN3Full House500
4222/09 02:13HILEDPEUTEFull House5,000
4322/09 02:13MOAHYOFull House5,000
4422/09 02:13N3KFull House2,000
4522/09 02:13LAWTEWFull House2,000
4622/09 02:13BECAK_88Four Of A Kind125,000
4722/09 02:13GHAYOUNGFull House5,000
4822/09 02:13DPBOBI8859Full House10,000
4922/09 02:13YAHBUFour Of A Kind125,000
5022/09 02:13AIR11Full House10,000

Domino Multi Jackpot System

Ikutilah global jackpot yang tersedia di system kami, dengan system jackpot terbaru dan pertama di indonesia, anda dapat membeli jackpot dengan harga 100 rupiah saja dan menangkan hadiahnya hingga puluhan juta rupiah.

Jackpot bukanlah suatu keharusan untuk dibeli, namun kami memberikan suatu fitur tambahan untuk member tercinta dari www.pokerindo818.com.

Terdapat tiga pilihan harga jackpot yang bisa anda beli yaitu :100,500 dan 1000 rupiah.

Hadiah dari Multi jackpot system www.pokerindo818.com

  1. Murni Kecil x 50 harga jackpot yang anda beli.
      (contoh:anda membeli 1000 maka:1000 X 50 = 50.000)
  2. Murni Besar x 50 harga jackpot yang anda beli
      (contoh:anda membeli 1000 maka:1000 X 50 = 50.000)
  3. BALAK x 100 harga jackpot yang anda beli
      (contoh:anda membeli 1000 maka:1000 X 100 = 100.000)
  4. ENAM DEWA x 6666 harga jackpot yang anda beli
      (contoh:anda membeli 1000 maka:1000 X 6666 = 6.666.000)

Demikian adalah penjelasan dari Multi Jackpot www.pokerindo818.com terima kasih dan selamat bermain salam hoki dari kami

Domino Jackpot Winner

TOP ENAM DEWA
No.TanggalNamaPriceWin
122/09 01:09WISMA92murni enam3,333,000
222/09 01:08ABAY888888murni enam3,333,000
322/09 00:44AMSEO99murni enam3,333,000
422/09 00:43DYCK22murni enam6,666,000
521/09 23:35TEMPE444murni enam666,600
TOP BALAK
No.TanggalNamaPriceWin
122/09 02:12Z03LF1K4Rbalak100,000
222/09 02:11A3189585balak10,000
322/09 02:10WAHYU7326balak100,000
422/09 02:08PIT99balak100,000
522/09 02:05MJS99balak50,000
LATEST JACKPOT
No.TanggalNamaPriceWin
122/09 02:14ZAC779murni besar25,000
222/09 02:13A2299046murni kecil5,000
322/09 02:13ITEM12murni besar5,000
422/09 02:13LONTAR50murni besar25,000
522/09 02:12PIT99murni besar50,000
622/09 02:12J3NGK0L1Nmurni besar50,000
722/09 02:12Z03LF1K4Rbalak100,000
822/09 02:11MAKMUR_999murni besar50,000
922/09 02:11A3189585balak10,000
1022/09 02:11LUTHFI99murni kecil25,000
1122/09 02:10NANGDOYmurni kecil25,000
1222/09 02:10WAHYU7326balak100,000
1322/09 02:10ERMAWA505murni besar50,000
1422/09 02:10MASYUDSSmurni kecil50,000
1522/09 02:09ALASAN11murni besar50,000
1622/09 02:09AMSEO99murni besar25,000
1722/09 02:08PIT99balak100,000
1822/09 02:08DEIRGI123murni kecil50,000
1922/09 02:08ICHAL46murni kecil50,000
2022/09 02:07SYAHRI86murni kecil25,000
2122/09 02:07HELMSNImurni kecil50,000
2222/09 02:05S4B4R89murni besar50,000
2322/09 02:05MJS99balak50,000
2422/09 02:05T212BOM99murni besar25,000
2522/09 02:05KALVENOmurni kecil50,000
2622/09 02:04PANGSIIT23balak100,000
2722/09 02:04WISMA92murni besar25,000
2822/09 02:04POK71murni besar50,000
2922/09 02:04SABUSEDOT8murni besar25,000
3022/09 02:03AALNACK855murni kecil25,000
3122/09 02:02KOKOS09murni kecil25,000
3222/09 02:02RH4848murni kecil50,000
3322/09 02:02ACIL66murni besar50,000
3422/09 02:02GENK990murni besar5,000
3522/09 02:02SYAMSUL99balak50,000
3622/09 02:02AGUNG250balak10,000
3722/09 02:01SUMMON99balak50,000
3822/09 02:01LB886763lucky9925,000
3922/09 02:01KOLOBOT99murni kecil5,000
4022/09 02:00ASHCOMmurni kecil50,000
4122/09 02:00GOSSQQmurni kecil25,000
4222/09 02:00SUIT99murni besar50,000
4322/09 02:00TMN07murni kecil50,000
4422/09 02:00WAWANNN5Ymurni kecil25,000
4522/09 02:00DEDY1575balak10,000
4622/09 01:58GENK990murni besar5,000
4722/09 01:58BUYUT_42murni kecil5,000
4822/09 01:58KOPIRACUNmurni besar25,000
4922/09 01:58NORAARIYANmurni besar50,000
5022/09 01:57KUCIP77balak50,000

Ceme Multi Jackpot System

Jackpot dilihat dari gabungan kartu pemain dengan kartu bandar. Bandar harus membeli jackpot sebanyak jumlah player yang sedang duduk. Sebagai contoh bila terdapat 3 pemain duduk bermain, dan bandar memutuskan untuk membeli jackpot Rp 1.000, maka pada periode tersebut bandar akan membeli jackpot sebanyak 3xRp1.000 = Rp3.000.

Jackpot bukanlah suatu keharusan untuk dibeli, namun kami memberikan suatu fitur tambahan untuk member tercinta dari www.pokerindo818.com.

Terdapat tiga pilihan harga jackpot yang bisa anda beli yaitu :100,500 dan 1000 rupiah.

Hadiah dari Multi jackpot system www.pokerindo818.com

  1. Murni Kecil x 50 harga jackpot yang anda beli.
      (contoh:anda membeli 1000 maka:1000 X 50 = 50.000)
  2. Murni Besar x 50 harga jackpot yang anda beli
      (contoh:anda membeli 1000 maka:1000 X 50 = 50.000)
  3. BALAK x 200 harga jackpot yang anda beli
      (contoh:anda membeli 1000 maka:1000 X 200 = 200.000)
  4. ENAM DEWA x 6666 harga jackpot yang anda beli
      (contoh:anda membeli 1000 maka:1000 X 6666 = 6.666.000)

Demikian adalah penjelasan dari Multi Jackpot www.pokerindo818.com terima kasih dan selamat bermain salam hoki dari kami

Ceme Jackpot Winner

TOP ENAM DEWA
No.TanggalNamaPriceWin
122/09 01:13ALUCARD27murni enam6,666,000
222/09 01:12MRET27murni enam3,333,000
322/09 00:58MARZO11murni enam6,666,000
422/09 00:58FENGLIE12murni enam666,600
522/09 00:49TINIQU9murni enam6,666,000
TOP BALAK
No.TanggalNamaPriceWin
122/09 02:14FIGA26balak20,000
222/09 02:14ASABbalak100,000
322/09 02:14GONDES7676balak200,000
422/09 02:14EDANEWbalak20,000
522/09 02:13SAPUTRO25balak100,000
LATEST JACKPOT
No.TanggalNamaPriceWin
122/09 02:14FIGA26balak20,000
222/09 02:14SHERMYmurni besar50,000
322/09 02:14MRBEKmurni besar25,000
422/09 02:14Z4X8Y0U2SJmurni besar50,000
522/09 02:14GIEGIE007murni besar50,000
622/09 02:14ASABbalak100,000
722/09 02:14GONDES7676balak200,000
822/09 02:14DILUKNEHmurni kecil50,000
922/09 02:14ALBERmurni kecil5,000
1022/09 02:14G6LF8HA4U7murni kecil25,000
1122/09 02:14ENDOYZSSSmurni kecil5,000
1222/09 02:14KIKUK12murni kecil50,000
1322/09 02:14EDANEWbalak20,000
1422/09 02:14DERUPS170murni besar50,000
1522/09 02:13VANDERGUNmurni besar50,000
1622/09 02:13MS06murni kecil50,000
1722/09 02:13DUD411murni kecil50,000
1822/09 02:13BNSIN089murni kecil50,000
1922/09 02:13CISS123murni kecil50,000
2022/09 02:13HD1940murni kecil5,000
2122/09 02:13HARSONO16murni kecil50,000
2222/09 02:13HARSONO16murni kecil50,000
2322/09 02:13SAPUTRO25balak100,000
2422/09 02:13KAMALUDIN1murni kecil50,000
2522/09 02:13INACANT1Kmurni kecil5,000
2622/09 02:13SET65murni kecil5,000
2722/09 02:13STANLY892murni besar50,000
2822/09 02:13IBI766murni besar50,000
2922/09 02:13XUCAXUCA15murni besar50,000
3022/09 02:13LCMILDbalak200,000
3122/09 02:13MANJE1212murni kecil5,000
3222/09 02:13HUGEN5murni kecil50,000
3322/09 02:13OVY6AGGX3Jmurni besar50,000
3422/09 02:13REGARD47murni kecil25,000
3522/09 02:13GRANITA11murni kecil5,000
3622/09 02:13CHOMSKYmurni kecil5,000
3722/09 02:13AYUWIJAYA1balak200,000
3822/09 02:13SNTSVO3PUQmurni kecil50,000
3922/09 02:13KUTU_AMRImurni kecil50,000
4022/09 02:12CHRI3ZTbalak20,000
4122/09 02:12DAKKENOmurni besar50,000
4222/09 02:12UNIN53murni besar25,000
4322/09 02:12IBLIS92murni besar50,000
4422/09 02:12KAKIKAWAK1murni besar5,000
4522/09 02:12RAFFA84murni kecil50,000
4622/09 02:12AQAE77murni kecil50,000
4722/09 02:12BRONGJAMSmurni kecil25,000
4822/09 02:12AQAE77murni kecil50,000
4922/09 02:12AFANDI15murni kecil5,000
5022/09 02:12SNTSVO3PUQmurni kecil50,000